Regional Weather Roundup
Issued by NWS Newport/Morehead, NC

Current Version | Previous Version | Graphics & Text | Print | Product List | Glossary Off
Versions: 1 2 3 4 5 6 7 8 9 10 11 12 13 14 15 16 17 18 19 20 21 22 23 24 25 26 27 28 29 30 31 32 33 34 35 36 37 38 39 40 41 42 43 44 45 46 47 48 49 50

000
ASUS42 KMHX 281725
RWRMHX
WEATHER ROUNDUP FOR EASTERN NORTH CAROLINA
NATIONAL WEATHER SERVICE NEWPORT/MOREHEAD CITY NC
100 PM EDT TUE JUL 28 2015

NOTE: "FAIR" INDICATES FEW OR NO CLOUDS BELOW 12,000 FEET
WITH NO SIGNIFICANT WEATHER AND/OR OBSTRUCTIONS TO VISIBILITY

NCZ015>017-031-032-045>047-102-103-281800-
NORTH COAST

CITY           SKY/WX    TMP DP  RH WIND       PRES   REMARKS
EDENTON          N/A     85  69  58 SE7       30.03F
ELIZABETH CITY CLOUDY    85  68  56 SE8       30.04F
KITTY HAWK     MOSUNNY   89  68  49 E9        30.03F
MANTEO         CLOUDY    83  70  65 SW9       30.03F

$$

NCZ045>047-081-094-103-104-281800-
CENTRAL COAST

CITY           SKY/WX    TMP DP  RH WIND       PRES   REMARKS
FRISCO         SUNNY     86  69  56 E9        30.02F
SWANQUARTER      N/A     86 N/A N/A E6G12     30.00S

$$

NCZ095-097-098-100-101-281800-
SOUTHERN COAST

CITY           SKY/WX    TMP DP  RH WIND       PRES   REMARKS
BEAUFORT       SUNNY     85  72  65 E9        30.01F
CEDAR ISLAND     N/A     84 N/A N/A E10       30.06S
JACKSONVILLE   SUNNY     86  68  54 SE8       30.01F
PINEY ISLAND   SUNNY    N/A N/A N/A E10       30.02F
WILMINGTON     MOSUNNY   85  70  60 E9        30.02S


$$

NCZ011>013-027>030-043-044-078>080-089-090>093-098-281800-
COASTAL PLAIN

CITY           SKY/WX    TMP DP  RH WIND       PRES   REMARKS
AHOSKIE        MOSUNNY   84  71  64 SE7       30.03F
CLINTON        SUNNY     88  70  54 E7        30.02F
ELIZABETHTOWN  SUNNY     88  66  47 E5        30.01F
GOLDSBORO      MOSUNNY   88  72  59 E10       30.01F
GREENVILLE     SUNNY     88  68  51 E7        30.04F
HAVELOCK       PTSUNNY   88  69  53 E9        30.02F
KENANSVILLE    MOSUNNY   86  65  49 SE5       30.03F
KINSTON        MOSUNNY   86  68  54 SE5       30.03F
NEW BERN       MOSUNNY   86  71  60 VRB5      30.03F
RICHLANDS      PTSUNNY   88  68  51 CALM      30.02S
ROCKY MOUNT    MOSUNNY   89  68  49 VRB7      30.02F
WASHINGTON     SUNNY     86  68  54 S5        30.03F
WHITEVILLE     MOSUNNY   86  70  57 E5        30.01F

$$

AMZ130-135-150-152-154-156-158-170-250-252-270-ANZ085-086-088-633-658-670-281800-
MARINE OBSERVATIONS

STATION/POSITION TIME  TEMP    WIND        PRES    WAVE   SWELL
                       AIR SEA DIR/SP/G            HT/PER HT/PER
                 (UTC) (F)     (DEG/KT/KT) (MB)    (FT/S) (FT/S)
CHESAPEAKE LIGHT 1700   80     190/ 12/ 12 1017.5
64 E VA BEACH    1650   80 81  200/  6/  8 1017.2    2/11   2/11
DUCK             1700   82 71  120/  8/  9 1016.3
2 E DUCK         1611      80                N/A     2/11   2/11
OREGON INLET     1700   81 82   80/  6/  8 1016.9
13E OREGON INLT  1700      80                N/A     2/11   2/11
HATTERAS CG      1700   83 82  100/  7/  9 1016.3
DIAMOND BUOY     NOT AVBL
CAPE LOOKOUT     1700   82      90/ 11/ 12 1016.0
BEAUFORT LAB     1700   82 81  130/ 10/ 14 1015.7
30 SE NEW RVR IN NOT AVBL
27 SE WRIGHTSVLE 1700   79 82  100/ 14/ 16   N/A
5 SE WRIGHTSVLE  NOT AVBL
225 S CAPE HAT   1650   79 82  220/ 19/ 23 1015.8    7/ 6   2/11
41 SE CHARLESTON 1650   84 84   60/ 14/ 16 1014.7    4/ 7   2/ 7

$$


USA.gov is the U.S. government's official web portal to all federal, state and local government web resources and services.